Time,TemperatureF,DewpointF,PressureIn,WindDirection,WindDirectionDegrees,WindSpeedMPH,WindSpeedGustMPH,Humidity,HourlyPrecipIn,Conditions,Clouds,dailyrainin,SoftwareType,DateUTC
2013-01-19 00:00:00,23.3,0.9,30.18,North,355,6.0,15.0,37,0.00,,---,0.00,VWS V14.01,2013-01-19 07:00:00,
2013-01-19 00:15:00,21.6,-0.1,30.18,NNW,348,0.0,10.0,38,0.00,,---,0.00,VWS V14.01,2013-01-19 07:15:00,
2013-01-19 00:30:00,23.2,1.4,30.18,NNW,348,5.0,10.0,38,0.00,,---,0.00,VWS V14.01,2013-01-19 07:30:00,
2013-01-19 00:45:00,23.0,1.2,30.18,NNW,344,3.0,10.0,38,0.00,,---,0.00,VWS V14.01,2013-01-19 07:45:00,
2013-01-19 01:00:00,20.7,0.2,30.20,NNW,344,0.0,7.0,40,0.00,,---,0.00,VWS V14.01,2013-01-19 08:00:00,
2013-01-19 01:15:00,18.2,-0.5,30.19,NNW,344,0.0,0.0,43,0.00,,---,0.00,VWS V14.01,2013-01-19 08:15:00,
2013-01-19 01:30:00,18.4,-0.9,30.19,NNW,344,0.0,1.0,42,0.00,,---,0.00,VWS V14.01,2013-01-19 08:30:00,
2013-01-19 01:45:00,24.1,1.0,30.14,NNW,344,4.0,7.0,36,0.00,,---,0.00,VWS V14.01,2013-01-19 08:45:00,
2013-01-19 02:00:00,23.3,0.3,30.17,NNW,344,5.0,9.0,36,0.00,,---,0.00,VWS V14.01,2013-01-19 09:00:00,
2013-01-19 02:15:00,21.7,-0.6,30.14,NNW,344,0.0,7.0,37,0.00,,---,0.00,VWS V14.01,2013-01-19 09:15:00,
2013-01-19 02:30:00,17.0,-0.7,30.20,NNW,344,0.0,5.0,45,0.00,,---,0.00,VWS V14.01,2013-01-19 09:30:00,
2013-01-19 02:45:00,16.6,-0.6,30.22,NNW,344,0.0,0.0,46,0.00,,---,0.00,VWS V14.01,2013-01-19 09:45:00,
2013-01-19 03:00:00,17.6,-0.6,30.20,NNW,344,5.0,6.0,44,0.00,,---,0.00,VWS V14.01,2013-01-19 10:00:00,
2013-01-19 03:15:00,17.2,-1.0,30.23,NNW,343,3.0,7.0,44,0.00,,---,0.00,VWS V14.01,2013-01-19 10:15:00,
2013-01-19 03:30:00,19.4,0.1,30.22,NW,325,3.0,9.0,42,0.00,,---,0.00,VWS V14.01,2013-01-19 10:30:00,
2013-01-19 03:45:00,20.5,-0.5,30.20,NW,325,0.0,6.0,39,0.00,,---,0.00,VWS V14.01,2013-01-19 10:45:00,
2013-01-19 04:00:00,17.1,-0.6,30.23,NW,321,6.0,10.0,45,0.00,,---,0.00,VWS V14.01,2013-01-19 11:00:00,
2013-01-19 04:15:00,16.7,-0.9,30.28,NW,317,0.0,9.0,45,0.00,,---,0.00,VWS V14.01,2013-01-19 11:15:00,
2013-01-19 04:30:00,22.9,0.5,30.22,NW,315,11.0,14.0,37,0.00,,---,0.00,VWS V14.01,2013-01-19 11:30:00,
2013-01-19 04:45:00,16.7,-1.9,30.27,ENE,59,5.0,17.0,43,0.00,,---,0.00,VWS V14.01,2013-01-19 11:45:00,
2013-01-19 05:00:00,16.7,-0.9,30.29,NW,314,7.0,9.0,45,0.00,,---,0.00,VWS V14.01,2013-01-19 12:00:00,
2013-01-19 05:15:00,16.3,-0.8,30.30,West,261,5.0,10.0,46,0.00,,---,0.00,VWS V14.01,2013-01-19 12:15:00,
2013-01-19 05:30:00,18.2,-1.0,30.26,West,260,5.0,9.0,42,0.00,,---,0.00,VWS V14.01,2013-01-19 12:30:00,
2013-01-19 05:45:00,17.2,-0.5,30.28,West,260,3.0,6.0,45,0.00,,---,0.00,VWS V14.01,2013-01-19 12:45:00,
2013-01-19 06:00:00,19.7,-0.2,30.27,West,260,0.0,7.0,41,0.00,,---,0.00,VWS V14.01,2013-01-19 13:00:00,
2013-01-19 06:15:00,20.1,0.2,30.32,West,263,7.0,7.0,41,0.00,,---,0.00,VWS V14.01,2013-01-19 13:15:00,
2013-01-19 06:30:00,22.1,1.5,30.33,NNE,33,9.0,14.0,40,0.00,,---,0.00,VWS V14.01,2013-01-19 13:30:00,
2013-01-19 06:45:00,18.4,-0.9,30.33,WNW,290,0.0,13.0,42,0.00,,---,0.00,VWS V14.01,2013-01-19 13:45:00,
2013-01-19 07:00:00,17.5,-1.2,30.36,WNW,294,5.0,8.0,43,0.00,,---,0.00,VWS V14.01,2013-01-19 14:00:00,
2013-01-19 07:15:00,19.2,0.4,30.38,WNW,295,5.0,7.0,43,0.00,,---,0.00,VWS V14.01,2013-01-19 14:15:00,
2013-01-19 07:30:00,17.0,-1.1,30.40,WNW,295,3.0,7.0,44,0.00,,---,0.00,VWS V14.01,2013-01-19 14:30:00,
2013-01-19 07:45:00,19.4,1.1,30.38,WNW,288,4.0,10.0,44,0.00,,---,0.00,VWS V14.01,2013-01-19 14:45:00,
2013-01-19 08:00:00,21.0,0.5,30.37,NNW,337,7.0,7.0,40,0.00,,---,0.00,VWS V14.01,2013-01-19 15:00:00,
2013-01-19 08:15:00,25.7,1.9,30.35,North,360,10.0,18.0,35,0.00,,---,0.00,VWS V14.01,2013-01-19 15:15:00,
2013-01-19 08:30:00,26.0,2.7,30.35,North,360,5.0,18.0,36,0.00,,---,0.00,VWS V14.01,2013-01-19 15:30:00,
2013-01-19 08:45:00,27.7,3.0,30.34,NNE,15,5.0,13.0,34,0.00,,---,0.00,VWS V14.01,2013-01-19 15:45:00,
2013-01-19 09:00:00,30.2,3.9,30.32,North,360,9.0,12.0,32,0.00,,---,0.00,VWS V14.01,2013-01-19 16:00:00,
2013-01-19 09:15:00,32.1,4.2,30.32,NNE,21,7.0,15.0,30,0.00,,---,0.00,VWS V14.01,2013-01-19 16:15:00,
2013-01-19 09:30:00,32.6,4.6,30.33,NNW,348,1.0,14.0,30,0.00,,---,0.00,VWS V14.01,2013-01-19 16:30:00,
2013-01-19 09:45:00,34.4,5.4,30.32,NNW,348,10.0,16.0,29,0.00,,---,0.00,VWS V14.01,2013-01-19 16:45:00,
2013-01-19 10:00:00,35.1,5.3,30.30,North,355,11.0,18.0,28,0.00,,---,0.00,VWS V14.01,2013-01-19 17:00:00,
2013-01-19 10:15:00,36.9,5.2,30.26,North,360,16.0,23.0,26,0.00,,---,0.00,VWS V14.01,2013-01-19 17:15:00,
2013-01-19 10:30:00,38.0,4.4,30.26,NNW,348,12.0,22.0,24,0.00,,---,0.00,VWS V14.01,2013-01-19 17:30:00,
2013-01-19 10:45:00,39.4,5.6,30.23,NNW,341,13.0,20.0,24,0.00,,---,0.00,VWS V14.01,2013-01-19 17:45:00,
2013-01-19 11:00:00,39.8,4.1,30.22,NW,325,6.0,20.0,22,0.00,,---,0.00,VWS V14.01,2013-01-19 18:00:00,
2013-01-19 11:15:00,40.4,4.6,30.27,NW,326,6.0,14.0,22,0.00,,---,0.00,VWS V14.01,2013-01-19 18:15:00,
2013-01-19 11:30:00,41.5,5.5,30.24,NNE,15,7.0,14.0,22,0.00,,---,0.00,VWS V14.01,2013-01-19 18:30:00,
2013-01-19 11:45:00,42.0,5.9,30.24,North,360,10.0,12.0,22,0.00,,---,0.00,VWS V14.01,2013-01-19 18:45:00,
2013-01-19 12:00:00,42.5,5.3,30.23,North,360,9.0,13.0,21,0.00,,---,0.00,VWS V14.01,2013-01-19 19:00:00,
2013-01-19 12:15:00,43.3,4.9,30.21,North,355,0.0,12.0,20,0.00,,---,0.00,VWS V14.01,2013-01-19 19:15:00,
2013-01-19 12:30:00,44.2,4.6,30.20,NNW,333,6.0,13.0,19,0.00,,---,0.00,VWS V14.01,2013-01-19 19:30:00,
2013-01-19 12:45:00,44.3,5.8,30.19,NNW,340,7.0,14.0,20,0.00,,---,0.00,VWS V14.01,2013-01-19 19:45:00,
2013-01-19 13:00:00,44.6,4.9,30.17,North,349,1.0,14.0,19,0.00,,---,0.00,VWS V14.01,2013-01-19 20:00:00,
2013-01-19 13:15:00,45.8,4.7,30.14,North,349,5.0,14.0,18,0.00,,---,0.00,VWS V14.01,2013-01-19 20:15:00,
2013-01-19 13:30:00,46.2,5.1,30.14,North,350,0.0,12.0,18,0.00,,---,0.00,VWS V14.01,2013-01-19 20:30:00,
2013-01-19 13:45:00,47.0,5.7,30.12,NNW,327,0.0,5.0,18,0.00,,---,0.00,VWS V14.01,2013-01-19 20:45:00,
2013-01-19 14:00:00,48.4,5.6,30.11,NNW,328,0.0,1.0,17,0.00,,---,0.00,VWS V14.01,2013-01-19 21:00:00,
2013-01-19 14:15:00,47.2,4.6,30.17,NNE,28,0.0,6.0,17,0.00,,---,0.00,VWS V14.01,2013-01-19 21:15:00,
2013-01-19 14:30:00,48.3,5.5,30.15,NNE,29,0.0,2.0,17,0.00,,---,0.00,VWS V14.01,2013-01-19 21:30:00,
2013-01-19 14:45:00,48.4,9.2,30.14,NNE,31,1.0,3.0,20,0.00,,---,0.00,VWS V14.01,2013-01-19 21:45:00,
2013-01-19 15:00:00,47.6,8.5,30.16,SSE,153,1.0,4.0,20,0.00,,---,0.00,VWS V14.01,2013-01-19 22:00:00,
2013-01-19 15:15:00,47.6,7.4,30.17,South,169,2.0,6.0,19,0.00,,---,0.00,VWS V14.01,2013-01-19 22:15:00,
2013-01-19 15:30:00,47.0,6.9,30.17,South,169,4.0,5.0,19,0.00,,---,0.00,VWS V14.01,2013-01-19 22:30:00,
2013-01-19 15:45:00,45.7,10.0,30.19,South,173,3.0,6.0,23,0.00,,---,0.00,VWS V14.01,2013-01-19 22:45:00,
2013-01-19 16:00:00,44.8,9.3,30.19,South,171,2.0,6.0,23,0.00,,---,0.00,VWS V14.01,2013-01-19 23:00:00,
2013-01-19 16:15:00,44.1,8.7,30.21,South,171,0.0,5.0,23,0.00,,---,0.00,VWS V14.01,2013-01-19 23:15:00,
2013-01-19 16:30:00,43.2,7.9,30.21,South,171,1.0,3.0,23,0.00,,---,0.00,VWS V14.01,2013-01-19 23:30:00,
2013-01-19 16:45:00,36.7,7.4,30.27,South,172,0.0,3.0,29,0.00,,---,0.00,VWS V14.01,2013-01-19 23:45:00,
2013-01-19 17:00:00,37.4,6.5,30.25,South,172,1.0,2.0,27,0.00,,---,0.00,VWS V14.01,2013-01-20 00:00:00,
2013-01-19 17:15:00,38.8,5.1,30.24,SW,219,0.0,10.0,24,0.00,,---,0.00,VWS V14.01,2013-01-20 00:15:00,
2013-01-19 17:30:00,39.1,6.3,30.24,SSW,193,0.0,0.0,25,0.00,,---,0.00,VWS V14.01,2013-01-20 00:30:00,
2013-01-19 17:45:00,37.3,6.4,30.27,SSW,202,1.0,4.0,27,0.00,,---,0.00,VWS V14.01,2013-01-20 00:45:00,
2013-01-19 18:00:00,35.8,6.7,30.29,NW,315,6.0,11.0,29,0.00,,---,0.00,VWS V14.01,2013-01-20 01:00:00,
2013-01-19 18:15:00,34.5,4.8,30.32,NW,315,7.0,12.0,28,0.00,,---,0.00,VWS V14.01,2013-01-20 01:15:00,
2013-01-19 18:30:00,32.2,4.3,30.34,North,0,4.0,9.0,30,0.00,,---,0.00,VWS V14.01,2013-01-20 01:30:00,
2013-01-19 18:45:00,37.1,6.2,30.30,NW,315,8.0,16.0,27,0.00,,---,0.00,VWS V14.01,2013-01-20 01:45:00,
2013-01-19 19:00:00,37.4,4.8,30.30,WNW,292,8.0,15.0,25,0.00,,---,0.00,VWS V14.01,2013-01-20 02:00:00,
2013-01-19 19:15:00,33.8,2.6,30.31,NNW,338,3.0,11.0,26,0.00,,---,0.00,VWS V14.01,2013-01-20 02:15:00,
2013-01-19 19:30:00,36.1,3.7,30.29,NW,315,2.0,9.0,25,0.00,,---,0.00,VWS V14.01,2013-01-20 02:30:00,
2013-01-19 19:45:00,30.9,1.6,30.25,NW,311,9.0,15.0,28,0.00,,---,0.00,VWS V14.01,2013-01-20 02:45:00,
2013-01-19 20:00:00,34.7,2.5,30.29,North,355,7.0,13.0,25,0.00,,---,0.00,VWS V14.01,2013-01-20 03:00:00,
2013-01-19 20:15:00,35.3,1.2,30.21,North,350,12.0,22.0,23,0.00,,---,0.00,VWS V14.01,2013-01-20 03:15:00,
2013-01-19 20:30:00,31.6,2.2,30.23,NNW,346,7.0,22.0,28,0.00,,---,0.00,VWS V14.01,2013-01-20 03:30:00,
2013-01-19 20:45:00,30.9,1.6,30.25,NW,311,9.0,15.0,28,0.00,,---,0.00,VWS V14.01,2013-01-20 03:45:00,
2013-01-19 21:00:00,32.3,2.1,30.23,NW,321,5.0,14.0,27,0.00,,---,0.00,VWS V14.01,2013-01-20 04:00:00,
2013-01-19 21:15:00,32.6,1.5,30.19,NW,318,10.0,18.0,26,0.00,,---,0.00,VWS V14.01,2013-01-20 04:15:00,
2013-01-19 21:20:00,32.6,1.5,30.19,NW,318,10.0,18.0,26,0.00,,---,0.00,VWS V14.01,2013-01-20 04:20:00,
2013-01-19 21:30:00,28.2,2.1,30.23,NNW,332,4.0,12.0,32,0.00,,---,0.00,VWS V14.01,2013-01-20 04:30:00,
2013-01-19 21:45:00,27.1,2.5,30.23,North,355,9.0,12.0,34,0.00,,---,0.00,VWS V14.01,2013-01-20 04:45:00,
2013-01-19 22:00:00,27.1,2.5,30.23,North,350,12.0,14.0,34,0.00,,---,0.00,VWS V14.01,2013-01-20 05:00:00,
2013-01-19 22:15:00,25.8,1.9,30.20,NNW,338,7.0,12.0,35,0.00,,---,0.00,VWS V14.01,2013-01-20 05:15:00,
2013-01-19 22:30:00,26.3,1.8,30.20,NW,325,3.0,10.0,34,0.00,,---,0.00,VWS V14.01,2013-01-20 05:30:00,
2013-01-19 22:45:00,26.2,2.3,30.20,NW,325,0.0,0.0,35,0.00,,---,0.00,VWS V14.01,2013-01-20 05:45:00,
2013-01-19 22:46:00,26.2,2.3,30.20,NW,325,0.0,0.0,35,0.00,,---,0.00,VWS V14.01,2013-01-20 05:46:00,
2013-01-19 23:00:00,24.0,0.9,30.22,NW,325,0.0,0.0,36,0.00,,---,0.00,VWS V14.01,2013-01-20 06:00:00,
2013-01-19 23:15:00,23.5,1.6,30.19,NW,325,0.0,1.0,38,0.00,,---,0.00,VWS V14.01,2013-01-20 06:15:00,
2013-01-19 23:30:00,22.5,1.3,30.19,NW,325,0.0,0.0,39,0.00,,---,0.00,VWS V14.01,2013-01-20 06:30:00,
2013-01-19 23:45:00,22.3,1.7,30.20,NW,325,0.0,1.0,40,0.00,,---,0.00,VWS V14.01,2013-01-20 06:45:00,